KE8RXN Weather Reports


Display with metric or nautical units.
time (UTC)temp
F
wind
direction
speed
MPH
gust
MPH
rain 1hr
in
rain 24hr
in
rain mn
in
humidity
%
barometer
mb
20260506160636 51 350 1.0 1.0 0.00 0.00 0.00 45 1017.0
20260506160133 53 265 2.0 2.0 0.00 0.00 0.00 42 1017.0
20260506155631 55 11 2.0 3.0 0.00 0.00 0.00 40 1017.1
20260506155128 52 23 0.0 1.0 0.00 0.00 0.00 43 1017.1
20260506153225 53 359 2.0 2.0 0.00 0.00 0.00 42 1017.1
20260506152721 52 18 0.0 1.0 0.00 0.00 0.00 43 1017.2
20260506152219 52 24 1.0 1.0 0.00 0.00 0.00 43 1016.9
20260506151718 52 306 3.0 3.0 0.00 0.00 0.00 42 1016.9
20260506151214 52 352 2.0 2.0 0.00 0.00 0.00 42 1017.0
20260506150710 52 31 1.0 1.0 0.00 0.00 0.00 44 1017.0
20260506150208 51 240 2.0 3.0 0.00 0.00 0.00 43 1017.0
20260506145705 50 200 5.0 6.0 0.00 0.00 0.00 45 1016.9
20260506145201 50 5 0.0 1.0 0.00 0.00 0.00 43 1017.1
20260506144659 50 303 1.0 2.0 0.00 0.00 0.00 43 1017.1
20260506144155 52 181 3.0 5.0 0.00 0.00 0.00 44 1016.9
20260506143653 52 28 1.0 1.0 0.00 0.00 0.00 42 1016.7
20260506143151 52 24 1.0 1.0 0.00 0.00 0.00 46 1016.7
20260506142649 50 57 1.0 2.0 0.00 0.00 0.00 46 1016.7
20260506142147 51 73 2.0 2.0 0.00 0.00 0.00 48 1016.7
20260506141644 52 291 2.0 2.0 0.00 0.00 0.00 47 1016.5
20260506141142 51 45 0.0 0.0 0.00 0.00 0.00 52 1016.5
20260506140639 51 40 0.0 0.0 0.00 0.00 0.00 53 1016.8
20260506140137 50 74 2.0 2.0 0.00 0.00 0.00 51 1016.6
20260506135633 49 59 1.0 1.0 0.00 0.00 0.00 53 1016.3
20260506135130 48 51 1.0 1.0 0.00 0.00 0.00 58 1016.5
20260506134626 48 58 2.0 2.0 0.00 0.00 0.00 59 1016.4
20260506134122 48 357 1.0 1.0 0.00 0.00 0.00 61 1016.5
20260506133620 47 55 1.0 1.0 0.00 0.00 0.00 64 1016.3
20260506133116 47 56 2.0 2.0 0.00 0.00 0.00 63 1016.4
20260506132614 47 45 3.0 3.0 0.00 0.00 0.00 65 1016.3
20260506132111 46 62 1.0 2.0 0.00 0.00 0.00 66 1016.3
20260506131608 46 20 1.0 2.0 0.00 0.00 0.00 66 1016.1
20260506131104 46 33 1.0 1.0 0.00 0.00 0.00 67 1016.4
20260506130601 45 33 1.0 2.0 0.00 0.00 0.00 67 1016.3
20260506130059 45 27 1.0 1.0 0.00 0.00 0.00 68 1016.3
20260506125557 45 59 3.0 3.0 0.00 0.00 0.00 68 1016.5
20260506125054 44 64 2.0 3.0 0.00 0.00 0.00 71 1016.4
20260506124552 44 69 3.0 3.0 0.00 0.00 0.00 69 1016.3
20260506124049 44 54 1.0 2.0 0.00 0.00 0.00 71 1016.3
20260506123547 43 47 1.0 1.0 0.00 0.00 0.00 71 1016.4
20260506123045 43 45 1.0 1.0 0.00 0.00 0.00 72 1016.3
20260506122541 42 29 1.0 2.0 0.00 0.00 0.00 74 1016.3
20260506122040 42 43 3.0 3.0 0.00 0.00 0.00 73 1016.2
20260506121537 42 30 1.0 1.0 0.00 0.00 0.00 75 1016.1
20260506121033 42 34 1.0 1.0 0.00 0.00 0.00 74 1016.0
20260506120531 42 29 1.0 1.0 0.00 0.00 0.00 74 1016.3
20260506120028 42 40 1.0 1.0 0.00 0.00 0.00 74 1015.8
20260506115526 41 30 1.0 1.0 0.00 0.00 0.00 74 1015.8
20260506115025 41 41 0.0 0.0 0.00 0.00 0.00 75 1015.7
20260506114521 41 18 1.0 1.0 0.00 0.00 0.00 75 1015.5
20260506114020 40 7 1.0 1.0 0.00 0.00 0.00 76 1015.4
20260506113517 40 48 0.0 1.0 0.00 0.00 0.00 77 1015.3
20260506113015 39 39 1.0 2.0 0.00 0.00 0.00 77 1015.3
20260506112511 39 39 1.0 1.0 0.00 0.00 0.00 80 1015.2
20260506112009 38 38 0.0 0.0 0.00 0.00 0.00 82 1015.2
20260506111507 36 34 0.0 0.0 0.00 0.00 0.00 84 1015.1
20260506111003 36 23 0.0 1.0 0.00 0.00 0.00 84 1014.9
20260506110501 36 3 0.0 1.0 0.00 0.00 0.00 84 1014.7
20260506105957 36 35 0.0 0.0 0.00 0.00 0.00 85 1014.6
20260506105454 35 36 0.0 0.0 0.00 0.00 0.00 86 1014.7
20260506104951 35 33 0.0 0.0 0.00 0.00 0.00 88 1014.9
20260506104449 34 38 0.0 0.0 0.00 0.00 0.00 88 1014.7
20260506103947 34 39 0.0 0.0 0.00 0.00 0.00 88 1014.8
20260506103444 34 38 0.0 0.0 0.00 0.00 0.00 88 1014.9
20260506102941 34 41 0.0 0.0 0.00 0.00 0.00 88 1014.9
20260506102439 34 39 0.0 0.0 0.00 0.00 0.00 87 1014.8
20260506101936 35 38 0.0 0.0 0.00 0.00 0.00 86 1014.9
20260506101432 35 38 0.0 0.0 0.00 0.00 0.00 85 1014.7
20260506100930 36 33 0.0 0.0 0.00 0.00 0.00 84 1014.7
20260506100428 36 20 0.0 1.0 0.00 0.00 0.00 84 1014.7
20260506095926 36 33 0.0 0.0 0.00 0.00 0.00 84 1014.5
20260506095424 37 27 0.0 0.0 0.00 0.00 0.00 83 1014.6
20260506094920 37 27 0.0 0.0 0.00 0.00 0.00 84 1014.5
20260506094419 37 30 0.0 0.0 0.00 0.00 0.00 84 1014.4
20260506093916 37 29 0.0 0.0 0.00 0.00 0.00 84 1014.5
20260506093414 37 27 0.0 1.0 0.00 0.00 0.00 84 1014.4
20260506092911 37 22 0.0 0.0 0.00 0.00 0.00 83 1014.4
20260506092409 37 27 0.0 0.0 0.00 0.00 0.00 83 1014.2
20260506091905 37 29 0.0 0.0 0.00 0.00 0.00 83 1014.1
20260506091403 37 33 0.0 0.0 0.00 0.00 0.00 82 1014.0
20260506090900 37 29 0.0 0.0 0.00 0.00 0.00 82 1014.0
20260506090358 38 24 0.0 1.0 0.00 0.00 0.00 82 1014.0
20260506085854 37 11 1.0 1.0 0.00 0.00 0.00 83 1014.0
20260506085351 37 18 0.0 1.0 0.00 0.00 0.00 83 1013.9
20260506084847 37 28 0.0 0.0 0.00 0.00 0.00 83 1013.9
20260506084344 38 30 0.0 0.0 0.00 0.00 0.00 83 1014.0
20260506083841 38 28 0.0 0.0 0.00 0.00 0.00 82 1013.7
20260506083338 38 30 0.0 0.0 0.00 0.00 0.00 82 1013.7
20260506082835 38 27 0.0 0.0 0.00 0.00 0.00 82 1013.8
20260506082332 38 28 0.0 0.0 0.00 0.00 0.00 82 1013.9
20260506081828 38 28 0.0 0.0 0.00 0.00 0.00 82 1013.7
20260506081326 38 33 0.0 0.0 0.00 0.00 0.00 83 1014.0
20260506080824 38 32 0.0 0.0 0.00 0.00 0.00 83 1013.7
20260506080320 39 33 0.0 0.0 0.00 0.00 0.00 82 1014.0
20260506073304 39 31 0.0 0.0 0.00 0.00 0.00 83 1014.0
20260506072801 39 31 0.0 0.0 0.00 0.00 0.00 82 1014.0
20260506072258 39 27 0.0 0.0 0.00 0.00 0.00 82 1014.1
20260506071756 39 32 0.0 1.0 0.00 0.00 0.00 81 1013.9
20260506071254 39 24 0.0 1.0 0.00 0.00 0.00 81 1013.9
20260506070751 39 29 0.0 0.0 0.00 0.00 0.00 81 1014.2
20260506070248 40 27 0.0 0.0 0.00 0.00 0.00 81 1013.7
20260506062224 41 30 0.0 0.0 0.00 0.00 0.00 77 1013.9
20260506061720 41 34 0.0 0.0 0.00 0.00 0.00 77 1014.0
20260506061218 41 29 0.0 0.0 0.00 0.00 0.00 76 1014.2
20260506060716 41 18 0.0 1.0 0.00 0.00 0.00 76 1014.1
20260506060213 41 29 0.0 0.0 0.00 0.00 0.00 76 1014.2
20260506051139 42 31 0.0 0.0 0.00 0.00 0.00 73 1014.1
20260506050638 42 31 0.0 0.0 0.00 0.00 0.00 73 1013.9
20260506050134 42 29 0.0 0.0 0.00 0.00 0.00 72 1014.1
20260506045127 43 5 1.0 1.0 0.00 0.00 0.00 72 1014.2
20260506044626 43 9 1.0 1.0 0.00 0.00 0.00 71 1014.3
20260506044122 43 359 1.0 1.0 0.00 0.00 0.00 71 1013.9
20260506043619 43 31 0.0 0.0 0.00 0.00 0.00 71 1013.6
20260506043118 43 27 0.0 0.0 0.00 0.00 0.00 70 1013.7
20260506042616 43 20 0.0 0.0 0.00 0.00 0.00 70 1013.8
20260506042114 43 30 0.0 0.0 0.00 0.00 0.00 70 1013.7
20260506041612 43 30 0.0 0.0 0.00 0.00 0.00 69 1013.6
20260506041108 43 27 0.0 0.0 0.00 0.00 0.00 68 1013.7
20260506040607 44 28 0.0 0.0 0.00 0.00 0.00 68 1013.6
20260506035600 44 10 0.0 1.0 0.00 0.00 0.00 69 1013.8
20260506035056 43 6 1.0 1.0 0.00 0.00 0.00 70 1013.7
20260506034554 43 24 0.0 1.0 0.00 0.00 0.00 71 1013.4
20260506034050 43 21 0.0 0.0 0.00 0.00 0.00 71 1013.4
20260506033548 42 33 0.0 0.0 0.00 0.00 0.00 72 1013.2
20260506033044 42 34 0.0 0.0 0.00 0.00 0.00 74 1013.4
20260506032542 42 35 0.0 0.0 0.00 0.00 0.00 73 1013.4
20260506032039 42 35 0.0 0.0 0.00 0.00 0.00 73 1013.5
20260506031537 43 35 0.0 0.0 0.00 0.00 0.00 71 1013.7
20260506031033 43 35 0.0 0.0 0.00 0.00 0.00 71 1013.6
20260506030531 43 33 0.0 0.0 0.00 0.00 0.00 71 1013.7
20260506030028 44 35 0.0 0.0 0.00 0.00 0.00 70 1013.7
20260506025525 44 16 1.0 1.0 0.00 0.00 0.00 69 1013.4
20260506025021 44 33 0.0 0.0 0.00 0.00 0.00 68 1013.2
20260506024518 44 35 0.0 0.0 0.00 0.00 0.00 67 1013.0
20260506024015 45 37 0.0 0.0 0.00 0.00 0.00 66 1013.2
20260506023511 45 32 0.0 0.0 0.00 0.00 0.00 64 1013.3
20260506023009 45 28 0.0 0.0 0.00 0.00 0.00 63 1013.0
20260506022506 45 30 0.0 0.0 0.00 0.00 0.00 64 1013.0
20260506022003 46 30 0.0 0.0 0.00 0.00 0.00 62 1013.0
20260506021501 46 16 0.0 1.0 0.00 0.00 0.00 61 1012.9
20260506020958 46 22 1.0 1.0 0.00 0.00 0.00 61 1012.9
20260506020455 46 30 0.0 0.0 0.00 0.00 0.00 60 1012.9
20260506015952 46 27 0.0 0.0 0.00 0.00 0.00 59 1012.7
20260506015449 46 32 0.0 0.0 0.00 0.00 0.00 58 1012.7
20260506014946 47 28 0.0 0.0 0.00 0.00 0.00 58 1012.8
20260506014443 47 29 0.0 0.0 0.00 0.00 0.00 57 1012.6
20260506013939 47 18 1.0 1.0 0.00 0.00 0.00 56 1012.6
20260506013438 47 30 0.0 0.0 0.00 0.00 0.00 56 1012.6
20260506012934 48 31 0.0 0.0 0.00 0.00 0.00 55 1012.3
20260506012430 48 26 0.0 1.0 0.00 0.00 0.00 55 1012.4
20260506011927 48 0 1.0 1.0 0.00 0.00 0.00 54 1012.6
20260506011425 48 26 0.0 1.0 0.00 0.00 0.00 55 1012.3
20260506010921 48 20 0.0 1.0 0.00 0.00 0.00 55 1012.4
20260506010420 48 24 1.0 1.0 0.00 0.00 0.00 55 1012.4
20260506005916 48 29 0.0 0.0 0.00 0.00 0.00 55 1012.3
20260506005414 49 26 0.0 0.0 0.00 0.00 0.00 55 1012.3
20260506004909 49 28 0.0 1.0 0.00 0.00 0.00 54 1012.4
20260506004407 49 30 0.0 0.0 0.00 0.00 0.00 54 1012.1
20260506003903 49 27 0.0 0.0 0.00 0.00 0.00 53 1012.2
20260506003359 49 1 1.0 1.0 0.00 0.00 0.00 52 1012.1
20260506002856 50 0 1.0 1.0 0.00 0.00 0.00 51 1012.3
20260506002352 50 30 0.0 0.0 0.00 0.00 0.00 51 1012.2
20260506001848 50 334 2.0 2.0 0.00 0.00 0.00 50 1012.2
20260506001345 50 326 1.0 1.0 0.00 0.00 0.00 50 1012.2
20260506000842 50 353 1.0 1.0 0.00 0.00 0.00 50 1012.0
20260506000340 50 356 0.0 1.0 0.00 0.00 0.00 50 1012.2
20260505235836 51 23 0.0 1.0 0.00 0.00 0.00 49 1012.1
20260505235334 51 358 1.0 1.0 0.00 0.00 0.00 47 1012.1
20260505234831 51 12 1.0 1.0 0.00 0.00 0.00 48 1012.2
20260505234329 51 265 2.0 2.0 0.00 0.00 0.00 47 1012.4
20260505233825 51 216 2.0 2.0 0.00 0.00 0.00 47 1012.0
20260505233324 51 10 1.0 1.0 0.00 0.00 0.00 47 1012.0
20260505232820 51 288 1.0 2.0 0.00 0.00 0.00 46 1012.2
20260505232318 51 239 2.0 3.0 0.00 0.00 0.00 45 1012.1
20260505231814 51 273 2.0 2.0 0.00 0.00 0.00 45 1011.9
20260505231313 51 288 5.0 6.0 0.00 0.00 0.00 44 1012.1
20260505230811 51 319 1.0 1.0 0.00 0.00 0.00 45 1012.1
20260505230307 51 315 2.0 2.0 0.00 0.00 0.00 44 1012.0
20260505225803 51 317 3.0 3.0 0.00 0.00 0.00 44 1012.0
20260505225301 52 316 2.0 2.0 0.00 0.00 0.00 44 1012.1
20260505224755 52 316 3.0 5.0 0.00 0.00 0.00 44 1012.2
20260505224254 52 0 2.0 3.0 0.00 0.00 0.00 45 1012.1
20260505223751 51 229 3.0 5.0 0.00 0.00 0.00 45 1012.2
20260505223247 52 287 3.0 3.0 0.00 0.00 0.00 44 1012.0
20260505222743 52 248 3.0 3.0 0.00 0.00 0.00 45 1012.1
20260505222240 52 349 2.0 3.0 0.00 0.00 0.00 45 1012.0
20260505221737 52 246 3.0 5.0 0.00 0.00 0.00 44 1012.1
20260505221233 52 327 2.0 2.0 0.00 0.00 0.00 46 1012.1
20260505220730 52 257 1.0 1.0 0.00 0.00 0.00 45 1012.0
20260505220228 52 319 2.0 2.0 0.00 0.00 0.00 45 1012.1
20260505215726 52 291 3.0 3.0 0.00 0.00 0.00 44 1012.0
20260505215223 52 300 3.0 3.0 0.00 0.00 0.00 44 1012.0
20260505214721 52 315 3.0 3.0 0.00 0.00 0.00 44 1012.0
20260505214218 52 356 3.0 3.0 0.00 0.00 0.00 44 1012.0
20260505213716 53 236 4.0 5.0 0.00 0.00 0.00 43 1012.2
20260505213213 53 302 3.0 3.0 0.00 0.00 0.00 44 1012.1
20260505212709 53 331 4.0 6.0 0.00 0.00 0.00 44 1012.1
20260505212206 52 229 4.0 6.0 0.00 0.00 0.00 44 1011.9
20260505211703 53 284 3.0 3.0 0.00 0.00 0.00 44 1011.9
20260505211200 53 296 3.0 3.0 0.00 0.00 0.00 44 1012.2
20260505210656 54 41 1.0 2.0 0.00 0.00 0.00 44 1012.1
20260505210154 54 308 3.0 5.0 0.00 0.00 0.00 43 1012.2
20260505205651 54 329 1.0 1.0 0.00 0.00 0.00 45 1012.2
20260505205149 54 244 3.0 5.0 0.00 0.00 0.00 44 1012.0
20260505204645 54 246 7.0 10.0 0.00 0.00 0.00 43 1012.2
20260505204143 54 233 1.0 2.0 0.00 0.00 0.00 45 1012.2
20260505203640 54 15 2.0 3.0 0.00 0.00 0.00 44 1012.2
20260505203136 54 240 6.0 7.0 0.00 0.00 0.00 43 1012.2
20260505202632 53 236 2.0 2.0 0.00 0.00 0.00 44 1012.3
20260505202128 54 309 5.0 7.0 0.00 0.00 0.00 43 1012.4
20260505201620 54 303 2.0 2.0 0.00 0.00 0.00 44 1012.3
20260505201118 54 348 4.0 6.0 0.00 0.00 0.00 43 1012.4
20260505200615 54 297 2.0 3.0 0.00 0.00 0.00 43 1012.6
20260505200112 55 303 4.0 5.0 0.00 0.00 0.00 43 1012.3
20260505195608 54 283 5.0 6.0 0.00 0.00 0.00 42 1012.3
20260505195106 54 269 5.0 7.0 0.00 0.00 0.00 42 1012.1
20260505194602 55 256 4.0 5.0 0.00 0.00 0.00 41 1011.9
20260505194052 54 271 2.0 2.0 0.00 0.00 0.00 43 1012.1
20260505193550 54 283 3.0 3.0 0.00 0.00 0.00 43 1012.1
20260505193046 53 321 3.0 5.0 0.00 0.00 0.00 42 1012.1
20260505192545 54 245 5.0 7.0 0.00 0.00 0.00 41 1012.3
20260505192042 55 280 5.0 6.0 0.00 0.00 0.00 41 1012.5
20260505191540 55 329 5.0 6.0 0.00 0.00 0.00 41 1011.9
20260505191038 55 275 6.0 8.0 0.00 0.00 0.00 41 1012.0
20260505190532 54 308 3.0 5.0 0.00 0.00 0.00 42 1012.0
20260505190029 54 275 4.0 6.0 0.00 0.00 0.00 41 1011.8
20260505185526 55 290 3.0 3.0 0.00 0.00 0.00 43 1011.8
20260505185022 55 210 7.0 9.0 0.00 0.00 0.00 39 1011.8
20260505184519 54 7 4.0 6.0 0.00 0.00 0.00 41 1011.6
20260505184016 53 261 3.0 5.0 0.00 0.00 0.00 41 1011.8
20260505183513 53 259 3.0 3.0 0.00 0.00 0.00 41 1011.9
20260505183010 53 290 6.0 8.0 0.00 0.00 0.00 41 1011.6
20260505182506 53 298 4.0 5.0 0.00 0.00 0.00 41 1012.0
20260505182003 54 2 1.0 2.0 0.00 0.00 0.00 42 1011.6
20260505181500 54 215 7.0 11.0 0.00 0.00 0.00 40 1012.0
20260505180956 54 270 3.0 5.0 0.00 0.00 0.00 41 1011.9
20260505180452 55 248 3.0 3.0 0.00 0.00 0.00 41 1011.7
20260505175950 54 258 4.0 6.0 0.00 0.00 0.00 41 1011.7
20260505175445 55 263 6.0 9.0 0.00 0.00 0.00 38 1011.6
20260505174942 55 222 5.0 7.0 0.00 0.00 0.00 38 1011.6
20260505174439 55 231 5.0 8.0 0.00 0.00 0.00 39 1011.3
20260505173935 54 313 2.0 2.0 0.00 0.00 0.00 40 1011.2
20260505173432 55 266 5.0 6.0 0.00 0.00 0.00 35 1011.0
20260505172929 55 293 6.0 8.0 0.00 0.00 0.00 36 1011.0
20260505172428 54 285 3.0 5.0 0.00 0.00 0.00 38 1011.0
20260505171926 55 277 2.0 3.0 0.00 0.00 0.00 38 1011.0
20260505171424 55 245 3.0 5.0 0.00 0.00 0.00 37 1011.0
20260505170920 55 237 7.0 10.0 0.00 0.00 0.00 36 1010.9
20260505170417 54 225 6.0 8.0 0.00 0.00 0.00 36 1011.0
20260505165912 54 308 2.0 2.0 0.00 0.00 0.00 35 1010.8
20260505165409 55 295 3.0 3.0 0.00 0.00 0.00 36 1010.9
20260505164904 55 307 3.0 3.0 0.00 0.00 0.00 35 1010.9
20260505164401 55 260 1.0 2.0 0.00 0.00 0.00 36 1011.0
20260505163859 55 299 2.0 2.0 0.00 0.00 0.00 36 1010.9
20260505163358 56 302 3.0 3.0 0.00 0.00 0.00 36 1010.9
20260505162856 55 332 1.0 2.0 0.00 0.00 0.00 37 1010.7
20260505162352 54 274 2.0 3.0 0.00 0.00 0.00 35 1011.0
20260505161849 54 344 5.0 7.0 0.00 0.00 0.00 35 1011.0
20260505161346 54 326 1.0 2.0 0.00 0.00 0.00 38 1010.7